113  
NZUS93 KARX 161259  
HRRWXR  
 
CURRENT HOURLY OBSERVATIONS ACROSS  
MUCH OF THE UPPER MISSISSIPPI VALLEY  
NATIONAL WEATHER SERVICE LA CROSSE WI  
800 AM CDT TUE JUL 16 2019  
 
   
..SOUTHEAST MINNESOTA
 
 
 
CITY SKY/WX TMP DP RH WIND PRES REMARKS  
ROCHESTER PTSUNNY 72 67 84 SW12 29.89R  
ROCHESTER/MAYO PTSUNNY 71 68 89 S3 29.89R  
WINONA FAIR 72 68 88 CALM 29.88S  
AUSTIN FAIR 73 64 73 SW5 29.89S  
ALBERT LEA NOT AVBL  
DODGE CENTER FAIR 70 66 88 SW9 29.88F  
PRESTON FAIR 70 66 89 SW6 29.90S  
OWATONNA NOT AVBL  
FARIBAULT NOT AVBL  

 
   
..ELSEWHERE IN MINNESOTA
 
 
 
CITY SKY/WX TMP DP RH WIND PRES REMARKS  
MINNEAPOLIS PTSUNNY 73 66 78 SW8 29.87R  
INTNL FALLS FAIR 69 65 86 W6 29.85R  
DULUTH FAIR 74 65 73 NW7 29.86R  
RED WING PTSUNNY 70 68 94 CALM 29.86R  
REDWOOD FALLS SUNNY 76 72 87 SW5 29.85R  
MANKATO FAIR 72 69 90 SW7 29.88R  
WORTHINGTON SUNNY 73 69 87 S12 29.89S  
FAIRMONT SUNNY 73 69 87 SW14 29.88R  

 
   
..SOUTHWEST WISCONSIN
 
 
 
CITY SKY/WX TMP DP RH WIND PRES REMARKS  
LA CROSSE PTSUNNY 75 68 78 S8 29.88S  
PRAIRIE DU CHI FAIR 73 65 75 SW5 29.91S  
BOSCOBEL FAIR 75 67 76 SW7 29.91S  
LONE ROCK FAIR 74 67 78 W7 29.92R  
PLATTEVILLE CLOUDY 71 71 100 SW8 29.93S  
FORT MC COY FAIR 67 64 90 S3 29.90S  
MAUSTON-NEW LI FAIR 74 69 85 SW7 29.91R  
VIROQUA FAIR 71 71 98 SW10 29.92S  
WIS DELLS FAIR 73 66 79 SW8 29.92R  

 
   
..ELSEWHERE IN WISCONSIN
 
 
 
CITY SKY/WX TMP DP RH WIND PRES REMARKS  
MILWAUKEE PTSUNNY 74 67 78 SW7 29.93R  
MADISON PTSUNNY 73 67 81 VRB5 29.91S  
GREEN BAY FAIR 75 68 78 SW14 29.88S  
EAU CLAIRE NOT AVBL  
BLACK RVR FLS FAIR 68 68 100 CALM 29.89R  
MEDFORD FAIR 66 64 94 W5 29.90R  
WAUSAU FAIR 69 66 90 SW9 29.88R  
WIS RAPIDS FAIR 72 67 84 SW8 29.91S  
MARSHFIELD FAIR 70 66 87 SW8 29.89R  
RICE LAKE FAIR 70 69 96 NW3 29.88S  

 
   
..NORTHEAST IOWA
 
 
 
CITY SKY/WX TMP DP RH WIND PRES REMARKS  
WATERLOO FAIR 75 66 73 W8 29.89R  
DUBUQUE CLOUDY 69 68 96 SW8 29.93F FOG  
DECORAH FAIR 72 68 88 VRB5 29.90S  
MASON CITY PTSUNNY 73 68 84 SW13 29.89S  
CHARLES CITY FAIR 72 70 94 CALM 29.90S  
OELWEIN SUNNY 72 70 94 S8 29.90F  

 
   
..ELSEWHERE IN IOWA
 
 
 
CITY SKY/WX TMP DP RH WIND PRES REMARKS  
DES MOINES PTSUNNY 72 66 81 W10 29.92R  
IOWA CITY CLOUDY 71 69 93 S3 29.91S FOG  
FORT DODGE CLOUDY 72 69 90 SW10 29.91R  
MARSHALLTOWN SUNNY 73 69 87 W12 29.89R  
CEDAR RAPIDS CLOUDY 70 68 93 CALM 29.90R  

 
   
..NORTHERN ILLINOIS
 
 
 
CITY SKY/WX TMP DP RH WIND PRES REMARKS  
CHICAGO-OHARE LGT RAIN 73 69 87 S5 29.94R  
CHICAGO-MIDWAY CLOUDY 74 71 91 S9 29.94S  
MOLINE CLOUDY 74 70 87 CALM 29.90R  
ROCKFORD CLOUDY 74 70 87 S7 29.94R  
PEORIA LGT RAIN 74 71 91 S7 29.92R  

 
 
NOTE: "FAIR" INDICATES FEW OR NO CLOUDS BELOW 12,000 FEET WITH NO  
SIGNIFICANT WEATHER AND/OR OBSTRUCTIONS TO VISIBILITY. WIND  
SPEEDS ARE IN MILES-PER-HOUR.  
 
 
CLICK HERE TO GO TO PREVIOUS BULLETINS.

The Nexlab WI Page
The Nexlab IA Page
The Nexlab MN Page Main Text Page